Location: Boiro
(42.6475°N, 8.8834°W)
Time: 07:22:41
(UTC+01:00)

SR - Pass Details

Date: 30 November 2021
Orbit: 583 x 872 km, 66.7° (Epoch: 16 January)

Event Time Altitude Azimuth Distance (km) Brightness Sun altitude
Rises 00:30:09 0° 162° (SSE) 3,038 - -66.2°
Reaches altitude 10° 00:33:38 10° 136° (SE) 2,064 - -66.5°
Maximum altitude 00:35:51 13° 107° (ESE) 1,811 - -66.7°
Drops below altitude 10° 00:38:01 10° 78° (ENE) 1,999 - -66.9°
Sets 00:41:17 0° 52° (NE) 2,866 - -67.2°
